Powrót do katalogu

CZ-3C DEB

LostGTO
NORAD 40864·DEBRIS·🇨🇳 China

Wystrzelony Feb 24, 2012 z Xichang Satellite Launch Center

Loading…

TLE

NieaktualneSource: Space-Track

Epoka: Jul 6, 2026, 17:40 UTC

1 40864U 12008AE  26187.73639387 -.00000156  00000-0 -13955-2 0  9992
2 40864  20.1214  26.4994 7088779 214.4874  67.2044  2.25658725   683

Śledź CZ-3C DEB w czasie rzeczywistym z AllMySat

Download on the App Store